Wind_Speed
23 22 20 17 16 14 11 8 7 7 8 10 13 15 18 21 24 26 29 32 34 35 36 37 37 36 35 35 35 36 35 35 36 35 34 31 29 28 28 27 26 25 25
25 24 22 20 18 15 13 10 8 6 6 7 9 11 14 17 21 22 25 28 31 34 34 34 35 35 35 34 34 35 35 34 35 35 35 33 32 31 29 28 27 27 27
26 25 24 22 20 17 15 13 10 7 5 5 6 8 10 13 17 19 22 23 26 29 31 32 32 32 33 32 33 33 34 34 33 33 33 33 32 31 29 28 27 27 26
28 27 25 24 22 19 17 15 13 9 7 6 5 5 7 10 13 15 18 20 23 25 28 30 31 31 30 30 31 32 32 33 33 32 31 30 30 29 28 27 26 26 25
29 28 27 25 24 22 20 18 15 12 9 8 6 3 3 6 9 12 15 17 20 23 24 26 29 30 30 30 30 30 31 31 31 30 30 29 28 27 27 26 25 25 25
28 28 28 27 25 24 21 19 17 14 12 9 7 4 2 3 5 8 11 13 16 20 21 23 26 28 29 28 29 28 28 28 28 27 26 26 26 27 26 26 25 24 24
28 28 28 28 26 25 23 21 20 17 15 13 10 7 3 1 2 4 7 9 12 16 18 20 22 24 25 25 25 25 25 25 25 25 25 24 23 24 24 24 24 23 22
28 28 28 27 27 26 25 23 22 20 18 15 11 8 5 2 0 2 4 7 10 12 14 16 18 19 20 21 21 22 22 23 23 23 22 22 22 22 21 21 21 22 22
28 28 28 27 27 26 26 25 24 22 20 17 14 11 8 5 3 2 3 6 8 11 13 14 16 17 18 19 19 19 20 21 21 21 20 20 20 20 19 19 19 19 20
28 28 28 28 27 26 26 25 24 23 21 19 16 14 11 9 6 5 5 5 6 8 11 12 14 15 15 16 18 18 19 20 20 20 20 19 18 17 17 16 16 16 17
27 27 27 27 27 26 26 25 24 23 22 20 18 16 14 11 9 7 6 6 6 7 9 10 11 13 14 15 17 18 18 18 18 18 18 17 16 16 15 14 14 14 14
25 26 27 27 26 26 26 25 25 24 23 21 19 17 16 14 11 9 8 8 7 7 9 9 10 11 12 13 14 15 16 16 16 16 16 16 15 14 14 13 14 13 12
23 24 25 25 25 25 25 25 25 24 23 22 20 19 17 15 14 12 10 9 8 8 9 9 10 11 11 12 13 13 14 15 15 15 14 14 13 13 13 13 12 12 11
21 22 23 23 24 24 24 24 24 23 23 22 21 20 19 17 16 14 13 11 9 9 9 10 10 10 11 12 13 13 14 14 14 14 13 13 12 12 12 11 10 10 9
20 20 21 21 22 22 22 22 23 23 22 21 20 20 19 18 17 15 14 13 11 9 9 9 9 9 10 11 12 12 12 13 13 13 12 12 12 12 11 11 10 10 9
18 19 19 20 20 20 20 20 20 20 20 20 19 18 17 17 16 15 13 12 11 9 8 7 8 8 9 9 10 10 11 11 10 11 11 11 11 10 10 10 10 10 9
17 17 17 18 18 18 18 18 18 18 18 18 17 17 16 15 15 14 13 12 11 10 9 8 8 7 7 7 8 9 9 10 10 10 10 10 9 9 9 9 9 9 8
15 16 16 16 16 16 16 16 15 15 16 16 16 15 15 14 14 13 12 11 10 9 9 8 7 7 7 7 8 8 8 9 9 8 8 8 8 8 8 8 8 8 7
15 15 15 15 14 14 14 14 14 13 13 13 13 13 13 12 11 11 11 10 9 8 7 7 7 6 6 7 7 7 7 7 8 8 8 8 8 8 8 8 7 7 7
16 15 15 14 14 13 13 13 12 12 11 11 11 11 10 10 10 9 9 8 8 7 6 5 5 4 4 5 5 6 6 6 7 7 7 8 8 8 8 7 7 7 7
18 17 16 15 14 14 13 12 12 11 11 10 9 9 9 8 8 7 7 6 6 5 4 4 3 2 2 3 4 5 5 6 6 6 7 8 8 8 8 8 8 8 7
20 19 18 17 16 15 14 13 13 12 11 10 9 9 8 8 7 6 6 5 4 3 2 2 1 0 1 2 3 3 4 5 6 7 7 8 8 8 8 8 8 8 8
23 22 21 20 19 17 16 15 14 13 12 11 11 10 9 8 8 7 6 6 5 4 4 3 3 2 3 3 3 4 4 5 6 7 7 8 9 9 9 9 9 10 10
27 26 24 23 22 20 19 18 17 16 14 14 13 12 11 10 10 9 9 8 7 7 6 6 6 5 5 5 6 6 6 7 7 8 8 9 9 10 10 10 11 11 11
32 30 28 27 25 24 22 21 20 19 17 16 16 15 14 13 12 12 11 11 10 10 9 9 9 9 9 9 8 8 9 9 9 10 10 11 11 12 12 12 12 13 13
36 34 33 31 30 28 26 25 23 22 21 20 19 18 17 16 16 15 14 14 13 13 12 12 12 12 12 12 12 12 12 12 12 12 12 13 13 13 14 14 15 15 15
Wind_Direction
13 11 9 6 1 357 351 339 309 286 271 256 249 245 240 236 232 229 227 225 224 224 225 226 226 226 228 227 227 229 229 228 228 229 230 232 236 236 239 242 246 251 257
16 16 15 14 11 9 5 359 344 318 288 270 256 249 240 234 231 229 226 225 225 225 225 224 224 226 226 225 226 226 227 228 228 229 229 231 234 237 240 244 246 252 256
18 18 19 19 18 18 15 13 6 354 332 305 274 257 243 235 230 228 226 226 226 225 224 223 223 224 224 223 224 225 226 225 226 226 227 230 232 235 239 242 248 251 255
22 21 21 20 20 19 18 16 15 12 0 343 312 272 248 236 230 226 227 228 226 223 222 223 222 222 221 222 223 224 224 224 225 225 228 229 230 234 238 243 247 251 255
24 24 23 22 22 21 21 21 19 15 9 359 350 334 270 240 229 222 223 224 222 221 220 220 220 220 221 223 223 223 223 224 224 225 227 229 231 234 238 242 247 250 255
25 25 25 24 24 24 25 25 24 20 16 11 5 355 328 270 243 226 222 219 215 215 217 217 217 219 221 222 223 222 222 222 223 225 226 228 232 236 238 240 243 247 252
25 25 25 26 26 27 28 28 28 27 25 24 24 19 4 311 248 229 218 214 211 209 211 210 211 215 216 215 216 216 216 218 220 222 224 226 231 234 237 240 241 246 251
24 24 24 26 28 29 29 29 29 28 28 29 32 32 28 28 306 204 204 206 204 202 202 202 202 203 206 208 208 210 211 213 214 218 221 224 228 230 232 237 240 247 253
24 24 25 27 28 28 29 30 30 29 30 31 34 35 37 51 73 143 175 186 192 194 197 198 197 200 202 204 203 204 207 211 213 213 215 218 222 224 229 236 242 247 248
23 24 25 27 28 28 29 30 31 32 33 34 37 39 44 51 63 94 121 145 166 182 188 191 194 198 201 203 205 206 206 206 210 213 214 215 218 222 229 235 239 241 243
22 24 25 26 28 29 30 30 31 33 34 35 39 43 46 51 59 76 100 115 132 153 170 177 183 190 194 199 200 202 204 206 207 210 213 216 219 224 228 230 233 238 241
21 22 24 25 27 29 31 32 33 33 35 37 40 43 45 49 58 71 88 101 113 134 146 154 162 168 176 184 188 193 200 203 203 205 210 213 214 215 218 224 231 234 233
18 20 22 24 26 28 30 31 33 34 36 38 41 44 46 51 58 68 78 89 103 117 132 137 145 154 161 171 180 185 189 192 196 201 204 207 209 211 215 220 221 221 221
13 16 18 21 24 26 28 30 32 34 36 38 41 44 48 53 57 60 66 76 92 108 121 132 139 149 157 161 167 175 181 188 191 196 203 206 208 210 209 208 211 214 218
6 9 12 15 19 22 25 28 30 33 35 37 41 46 48 50 52 55 61 68 78 95 112 125 136 141 152 159 163 168 176 183 187 188 192 198 202 203 204 207 211 214 217
359 3 7 9 13 17 22 25 28 30 33 35 38 42 46 48 51 54 60 65 71 81 98 117 133 143 149 157 164 170 174 178 182 184 186 188 191 196 202 206 207 209 215
350 354 358 2 6 10 16 20 24 27 30 33 35 38 41 45 49 53 57 62 68 78 91 104 120 132 143 152 160 167 172 174 176 179 180 182 186 192 195 199 204 211 219
337 342 347 352 356 1 5 11 16 20 24 29 32 35 38 41 45 48 52 56 64 74 85 95 105 119 132 143 151 157 162 167 172 176 181 186 190 192 194 198 206 214 222
323 327 333 339 344 349 353 358 3 9 14 18 23 28 31 35 38 43 47 51 58 69 81 91 101 112 130 143 153 162 167 172 178 184 189 193 195 196 199 204 210 217 225
309 313 318 323 329 334 339 343 348 353 359 3 8 13 18 24 29 34 39 44 50 60 72 86 101 112 129 149 161 169 176 181 185 191 195 198 200 202 206 212 218 225 230
298 301 304 308 313 318 322 327 332 336 341 346 351 355 1 6 11 17 22 27 33 44 56 68 82 101 133 159 173 182 188 192 195 200 204 207 209 214 218 223 228 233 238
288 290 293 295 299 303 307 310 314 318 321 326 329 332 337 342 347 350 352 357 3 4 7 21 44 116 172 183 193 201 208 211 212 214 216 217 220 224 228 232 236 240 245
280 282 284 286 288 291 294 297 299 302 305 307 309 311 314 318 320 321 323 323 322 319 313 304 293 274 251 241 240 239 235 231 229 227 228 230 233 236 239 243 246 250 254
274 275 277 278 280 282 284 286 288 290 291 293 295 296 296 298 301 302 301 300 298 295 292 288 283 278 270 263 258 253 249 246 244 243 242 241 243 245 247 250 253 256 259
270 270 272 273 274 276 277 278 279 281 283 284 285 286 286 286 287 289 289 290 289 286 283 280 276 273 270 267 264 260 257 256 256 255 253 254 254 255 255 257 258 260 262
267 267 268 269 269 270 272 273 274 275 276 277 279 280 281 281 281 281 281 281 282 281 280 278 275 272 269 267 265 264 261 260 261 262 262 263 263 263 264 264 264 265 266
Height
5773 5767 5762 5758 5754 5750 5747 5745 5743 5742 5741 5741 5741 5742 5743 5745 5748 5752 5756 5760 5765 5769 5774 5779 5784 5789 5794 5799 5804 5809 5813 5818 5823 5827 5831 5834 5837 5840 5842 5844 5846 5847 5848
5774 5769 5764 5759 5754 5750 5747 5744 5742 5740 5739 5739 5739 5739 5739 5741 5743 5746 5750 5753 5758 5762 5767 5772 5777 5782 5787 5792 5797 5802 5806 5811 5816 5820 5824 5827 5831 5834 5836 5838 5840 5841 5842
5776 5771 5765 5760 5756 5751 5748 5744 5742 5739 5738 5737 5736 5736 5736 5738 5739 5742 5745 5748 5752 5756 5760 5766 5771 5775 5780 5785 5790 5795 5800 5804 5809 5813 5816 5820 5824 5827 5830 5832 5833 5835 5836
5779 5773 5768 5763 5758 5753 5749 5745 5742 5740 5738 5736 5735 5734 5734 5735 5736 5738 5741 5743 5747 5751 5755 5759 5764 5769 5774 5778 5784 5789 5793 5798 5802 5806 5810 5814 5817 5820 5824 5826 5827 5829 5830
5782 5776 5771 5765 5760 5755 5751 5747 5743 5740 5738 5736 5734 5733 5732 5732 5733 5735 5737 5739 5742 5746 5749 5754 5759 5764 5768 5773 5778 5783 5787 5791 5796 5800 5804 5808 5811 5814 5817 5820 5822 5823 5824
5786 5780 5774 5768 5763 5758 5753 5749 5745 5742 5739 5736 5734 5732 5731 5731 5731 5732 5734 5736 5738 5742 5745 5750 5754 5758 5763 5767 5772 5777 5781 5786 5790 5794 5798 5802 5805 5809 5811 5814 5816 5817 5818
5789 5783 5778 5772 5766 5761 5756 5751 5747 5744 5740 5737 5735 5733 5732 5731 5731 5731 5732 5734 5736 5738 5742 5746 5750 5754 5758 5763 5767 5772 5776 5780 5785 5789 5793 5797 5800 5803 5805 5807 5810 5811 5812
5793 5787 5781 5775 5770 5765 5760 5755 5750 5746 5743 5739 5736 5734 5733 5732 5731 5731 5731 5732 5734 5737 5740 5743 5747 5751 5755 5759 5764 5768 5772 5776 5780 5785 5788 5792 5795 5797 5800 5802 5804 5805 5807
5796 5791 5785 5779 5774 5769 5764 5759 5754 5750 5745 5742 5739 5736 5734 5733 5732 5732 5732 5733 5734 5736 5739 5742 5745 5749 5753 5757 5761 5765 5769 5773 5777 5781 5784 5787 5790 5793 5795 5798 5799 5800 5801
5800 5795 5789 5783 5778 5773 5768 5763 5758 5754 5749 5745 5742 5739 5737 5735 5734 5733 5733 5734 5735 5736 5738 5741 5744 5748 5752 5755 5759 5762 5766 5770 5773 5777 5780 5783 5786 5789 5791 5793 5795 5796 5797
5804 5799 5793 5788 5782 5777 5772 5767 5762 5758 5753 5749 5745 5742 5740 5738 5737 5736 5735 5736 5736 5738 5739 5741 5744 5747 5750 5753 5757 5760 5763 5767 5771 5774 5777 5780 5783 5785 5787 5789 5791 5793 5794
5807 5802 5797 5792 5787 5782 5777 5772 5767 5762 5758 5754 5750 5747 5744 5742 5740 5739 5738 5738 5739 5739 5741 5743 5745 5747 5749 5752 5755 5759 5762 5765 5769 5772 5775 5778 5780 5782 5784 5786 5787 5789 5790
5811 5806 5801 5796 5791 5786 5781 5776 5772 5767 5763 5759 5755 5752 5749 5746 5744 5743 5742 5742 5742 5742 5743 5745 5746 5748 5751 5753 5755 5758 5761 5764 5767 5770 5773 5775 5777 5780 5782 5783 5785 5786 5787
5813 5809 5804 5800 5795 5790 5785 5781 5776 5772 5768 5764 5760 5757 5754 5752 5749 5748 5746 5746 5745 5745 5746 5747 5748 5750 5752 5754 5756 5759 5761 5764 5766 5769 5771 5773 5775 5777 5779 5781 5783 5784 5785
5815 5811 5807 5803 5798 5794 5789 5785 5781 5777 5773 5769 5766 5763 5760 5757 5755 5752 5751 5750 5749 5749 5749 5750 5751 5752 5754 5755 5757 5759 5761 5763 5765 5767 5770 5772 5774 5775 5777 5779 5781 5782 5783
5816 5813 5809 5805 5801 5797 5793 5789 5785 5781 5777 5774 5771 5768 5765 5762 5760 5758 5756 5754 5753 5752 5752 5753 5753 5754 5755 5756 5758 5760 5761 5763 5765 5767 5769 5771 5773 5774 5776 5778 5779 5780 5781
5817 5813 5810 5806 5802 5799 5795 5792 5788 5785 5781 5778 5775 5772 5769 5767 5764 5762 5760 5758 5757 5756 5756 5756 5756 5756 5757 5758 5759 5760 5762 5763 5765 5767 5769 5770 5772 5773 5775 5776 5778 5779 5779
5816 5813 5810 5807 5803 5800 5797 5794 5791 5787 5784 5781 5778 5776 5773 5771 5768 5766 5764 5762 5761 5760 5759 5759 5759 5759 5759 5760 5761 5762 5763 5764 5766 5767 5769 5770 5771 5773 5774 5775 5776 5777 5778
5814 5812 5809 5806 5803 5800 5798 5795 5792 5789 5786 5784 5781 5779 5776 5774 5772 5769 5768 5766 5764 5763 5762 5762 5762 5761 5761 5762 5762 5763 5764 5765 5766 5767 5768 5770 5771 5772 5773 5774 5775 5775 5776
5812 5809 5807 5805 5802 5800 5797 5795 5792 5790 5787 5785 5782 5780 5778 5776 5774 5772 5770 5769 5767 5766 5765 5764 5764 5763 5763 5763 5764 5764 5765 5765 5766 5767 5768 5769 5770 5771 5772 5772 5773 5774 5774
5808 5806 5804 5802 5800 5798 5795 5793 5791 5789 5787 5785 5783 5781 5779 5777 5775 5774 5772 5770 5769 5768 5767 5766 5765 5765 5764 5764 5764 5765 5765 5766 5766 5767 5767 5768 5769 5770 5770 5771 5771 5772 5772
5803 5801 5800 5798 5796 5795 5793 5791 5789 5787 5785 5783 5782 5780 5778 5777 5775 5774 5772 5771 5770 5769 5768 5767 5766 5765 5765 5765 5765 5765 5765 5765 5765 5766 5766 5767 5768 5768 5768 5769 5769 5769 5770
5797 5796 5794 5793 5792 5790 5789 5787 5786 5784 5783 5781 5780 5778 5777 5775 5774 5773 5772 5770 5769 5768 5768 5767 5766 5765 5765 5765 5764 5764 5764 5764 5764 5765 5765 5765 5766 5766 5766 5766 5766 5767 5767
5789 5789 5788 5787 5786 5785 5784 5782 5781 5780 5779 5777 5776 5775 5774 5773 5772 5771 5770 5769 5768 5767 5766 5765 5765 5764 5764 5763 5763 5763 5763 5763 5763 5763 5763 5763 5763 5763 5764 5764 5764 5764 5763
5781 5780 5780 5779 5778 5778 5777 5776 5775 5775 5774 5773 5772 5771 5770 5769 5768 5767 5766 5766 5765 5764 5763 5763 5762 5762 5762 5761 5761 5761 5761 5760 5760 5760 5760 5760 5760 5760 5760 5760 5760 5760 5760
5770 5770 5770 5770 5770 5770 5769 5769 5768 5768 5767 5767 5766 5765 5765 5764 5763 5763 5762 5761 5761 5760 5760 5759 5759 5758 5758 5758 5758 5758 5757 5757 5757 5757 5757 5757 5757 5757 5756 5756 5756 5756 5755